Other Public Products
Issued by NWS Grand Forks, ND

Home | Current Version | Previous Version | Graphics & Text | Print | Product List | Glossary On
Versions: 1 2 3 4 5 6 7 8 9 10 11 12 13 14 15 16 17 18 19 20 21 22 23 24 25 26 27 28 29 30 31 32 33 34 35 36 37 38 39 40 41 42 43 44 45 46 47 48 49 50
000
FPUS83 KFGF 241810
OPUFGF
PRAIRIE TO PINES WEATHER ROUNDUP
NATIONAL WEATHER SERVICE EASTERN NORTH DAKOTA/GRAND FORKS ND
100 PM CDT SAT SEP 24 2016

 **SATELLITE DATA USED TO AUGMENT SKY COVER AT AUTOMATED STATIONS**
 *****  WEATHER ACROSS EASTERN NORTH DAKOTA  *****

CITY           SKY/WX    TMP DP  RH WIND       PRES   REMARKS
GRAND FORKS    CLOUDY    74  66  76 SE16      29.84F
6HR MIN TEMP:  63; 6HR MAX TEMP:  74;

GRAND FORKS AF CLOUDY    72  67  84 SE12G18   29.84F
GRAND CITY NWS NOT AVBL
BUXTON         NOT AVBL
DEVILS LAKE    CLOUDY    71  66  84 SE13      29.80F
6HR MIN TEMP:  60; 6HR MAX TEMP:  71;

FARGO          MOSUNNY   79  66  64 S22G33    29.85F
6HR MIN TEMP:  68; 6HR MAX TEMP:  79;

WAHPETON ARPT  PTCLDY    77  63  61 SE20G28   29.87F
$$

 *****  WEATHER ACROSS CENTRAL AND WESTERN NORTH DAKOTA  *****

CITY           SKY/WX    TMP DP  RH WIND       PRES   REMARKS
JAMESTOWN      CLOUDY    73  66  78 SE14      29.79F
6HR MIN TEMP:  65; 6HR MAX TEMP:  77;

BISMARCK       MOSUNNY   76  64  66 SE22      29.70F
6HR MIN TEMP:  60; 6HR MAX TEMP:  76;

MINOT          PTSUNNY   74  66  76 SE9       29.71F
6HR MIN TEMP:  60; 6HR MAX TEMP:  74; 6HR PCP:  0.01;

MINOT AFB      CLOUDY    70  66  86 SE9       29.70F
6HR MIN TEMP:  59; 6HR MAX TEMP:  70; 6HR PCP:  0.06;

GARRISON         N/A     72  65  78 SE13      29.70F
6HR MIN TEMP:  60; 6HR MAX TEMP:  73; 6HR PCP:  0.02;

WILLISTON      CLOUDY    57  55  93 N18       29.72F FOG
6HR MIN TEMP:  55; 6HR MAX TEMP:  58; 6HR PCP:  0.01;

DICKINSON      CLOUDY    64  61  90 S10       29.68S
6HR MIN TEMP:  56; 6HR MAX TEMP:  64; 6HR PCP:  0.01;

HETTINGER      MOSUNNY   65  53  65 S21G26    29.73R
6HR MIN TEMP:  58; 6HR MAX TEMP:  66;

$$

 *****  OTHER OBSERVATIONS NORTHEAST NORTH DAKOTA  *****

CITY           SKY/WX    TMP DP  RH WIND       PRES   REMARKS
WALHALLA       FAIR      64  64 100 SE9G16    29.84F FOG
LANGDON        CLOUDY    66  66 100 SE13      29.84S FOG
CAVALIER       CLOUDY    66  64  94 SE9       29.84F
GRAFTON        CLOUDY    70  68  94 S18G25    29.86F
CANDO          CLOUDY    70  70 100 SE15      29.82F
FORT TOTTEN    NOT AVBL
ROLLA          CLOUDY    68  68 100 S20       29.80F
RUGBY          FAIR      72  68  88 SE12      29.76F
 ***** THE ABOVE OBSERVATIONS ARE NON NWS ARE NOT QUALITY
        CONTROLLED AND MAY MIS-REPORT RAIN FOR SNOW...
$$

 *****  OTHER OBSERVATIONS SOUTHEAST NORTH DAKOTA *****

CITY           SKY/WX    TMP DP  RH WIND       PRES   REMARKS
COOPERSTOWN    NOT AVBL
VALLEY CITY    CLOUDY    73  73 100 SE22G28   29.84F
OAKES          NOT AVBL
GWINNER        CLOUDY    77  68  73 SE18G28   29.84F
SHEYENNE NWR     N/A     78  67  69 S21       29.95S
BUFFALO        NOT AVBL
WYNDMERE       NOT AVBL
 ***** THE ABOVE OBSERVATIONS ARE NON NWS ARE NOT QUALITY
       CONTROLLED AND MAY MIS-REPORT RAIN FOR SNOW...
$$

  *****  WEATHER ACROSS NORTHERN MINNESOTA  *****

CITY           SKY/WX    TMP DP  RH WIND       PRES   REMARKS
FLAG ISLAND    CLOUDY    59  57  94 SE7       29.98S
WARROAD        CLOUDY    64  61  88 SE12      29.96F
ROSEAU         CLOUDY    66  61  82 SE15      29.93F
HALLOCK        PTSUNNY   72  66  83 SE14      29.86F
THF RVR FALLS  CLOUDY    73  65  75 SE17      29.91F
6HR MIN TEMP:  60; 6HR MAX TEMP:  74;

HALSTAD          N/A     75  68  77 S20         N/A
FOSSTON        MOSUNNY   72  63  73 SE14      29.94S
BAUDETTE       CLOUDY    63  60  90 SE12      30.00F
6HR MIN TEMP:  54; 6HR MAX TEMP:  63;

WASKISH        CLOUDY    64  61  88 S9        30.01S
CROOKSTON      PTSUNNY   75  66  73 S24       29.88F
$$
  *****  WEATHER ACROSS CENTRAL AND WEST MINNESOTA  *****

CITY           SKY/WX    TMP DP  RH WIND       PRES   REMARKS
BEMIDJI        CLOUDY    64  61  88 SE14G20   30.00F
PARK RAPIDS    CLOUDY    65  61  87 SE16      30.00F
6HR MIN TEMP:  62; 6HR MAX TEMP:  65;

WADENA         NOT AVBL
DETROIT LAKES  CLOUDY    68  63  83 SE17G24   29.95F
MOORHEAD       MOSUNNY   77  64  65 SE25G31   29.87F
FERGUS FALLS   SUNNY     73  64  73 SE20G25   29.93F
ELBOW LAKE     FAIR      73  65  76 SE20G26   29.92F
MORRIS MN      MOSUNNY   75  66  73 SE20G28   29.90F
STAPLES        CLOUDY    61  61 100 SE12      30.02S FOG
WHEATON        NOT AVBL
$$
  *****  WEATHER ELSEWHERE ACROSS MINNESOTA  *****

CITY           SKY/WX    TMP DP  RH WIND       PRES   REMARKS
DULUTH         FOG       58  58 100 E10       30.12F VSB 3/4
6HR MIN TEMP:  54; 6HR MAX TEMP:  58; 6HR PCP:  0.02;

INTRNTL FALLS  CLOUDY    64  57  78 S7        30.06S
6HR MIN TEMP:  54; 6HR MAX TEMP:  64;

ELY            CLOUDY    64  55  72 SE15      30.13S
CLOQUET        CLOUDY    59  55  88 E7        30.12S FOG
BRAINERD       CLOUDY    63  60  90 SE10G17   30.05F
6HR MIN TEMP:  60; 6HR MAX TEMP:  63;

HIBBING        CLOUDY    60  57  89 SE13      30.11S
6HR MIN TEMP:  56; 6HR MAX TEMP:  60;

ALEXANDRIA     CLOUDY    68  65  90 SE17      29.99F
6HR MIN TEMP:  63; 6HR MAX TEMP:  68;

SAINT CLOUD    CLOUDY    64  64 100 SE14G23   30.04F
6HR MIN TEMP:  62; 6HR MAX TEMP:  64;

MINNEAPOLIS    CLOUDY    68  63  84 SE13      30.07F
6HR MIN TEMP:  63; 6HR MAX TEMP:  68;

$$

  *****  WEATHER ACROSS SOUTH DAKOTA  *****

CITY           SKY/WX    TMP DP  RH WIND       PRES   REMARKS
SIOUX FALLS    PTSUNNY   80  70  71 SE18      29.91S
6HR MIN TEMP:  69; 6HR MAX TEMP:  80;

BROOKINGS      CLOUDY    76  67  73 S20       29.90S
WATERTOWN      CLOUDY    76  67  73 S20G30    29.88F
6HR MIN TEMP:  68; 6HR MAX TEMP:  76;

HURON          CLOUDY    78  66  66 S18G25    29.82F
6HR MIN TEMP:  68; 6HR MAX TEMP:  78;

SISSETON         N/A     78  67  68 S20G26    29.85F
ABERDEEN       CLOUDY    75  65  70 S13G24    29.82R
6HR MIN TEMP:  70; 6HR MAX TEMP:  77;

MITCHELL       MOSUNNY   75  70  84 S15       29.87R
PIERRE         SUNNY     72  48  42 SW14      29.81R
6HR MIN TEMP:  60; 6HR MAX TEMP:  72; 6HR PCP: TRACE;

MOBRIDGE       SUNNY     74  57  55 S17G24    29.74R
RAPID CITY     SUNNY     65  44  46 SW13      29.82S
6HR MIN TEMP:  53; 6HR MAX TEMP:  65;

$$

  *****  SOME WEATHER IN NEARBY STATES *****

CITY           SKY/WX    TMP DP  RH WIND       PRES   REMARKS
GLASGOW MT     LGT RAIN  50  49  96 NW18      29.85R
6HR MIN TEMP:  47; 6HR MAX TEMP:  50; 6HR PCP:  0.08;

GREAT FALLS MT MOSUNNY   59  33  37 W22G28    30.10R
6HR MIN TEMP:  43; 6HR MAX TEMP:  62;

CHEYENNE WY    MOSUNNY   58  37  45 SW15      30.05R
6HR MIN TEMP:  37; 6HR MAX TEMP:  58;

SCOTTSBLUFF NE SUNNY     66  41  40 NW9       29.98F
6HR MIN TEMP:  42; 6HR MAX TEMP:  66;

OMAHA NE       TSTM      73  68  84 S20G26    29.98R VSB 3/4
6HR MIN TEMP:  72; 6HR MAX TEMP:  84; 6HR PCP:  0.04;

DES MOINES IA  MOSUNNY   86  68  54 SE14      30.02F
6HR MIN TEMP:  69; 6HR MAX TEMP:  86;

DAVENPORT IA   CLOUDY    72  67  84 E8        30.15S HAZE
6HR MIN TEMP:  65; 6HR MAX TEMP:  72;

CHICAGO IL     CLOUDY    70  62  76 NE9       30.19S
6HR MIN TEMP:  66; 6HR MAX TEMP:  70;

EAU CLAIRE WI  CLOUDY    66  60  81 E12       30.15S
6HR MIN TEMP:  61; 6HR MAX TEMP:  67;

LA CROSSE WI   CLOUDY    71  63  75 SE13      30.14F
6HR MIN TEMP:  65; 6HR MAX TEMP:  71;

$$

  *****  SOME NATIONAL WEATHER *****

CITY           SKY/WX    TMP DP  RH WIND       PRES   REMARKS
LA GUARDIA NY  MOSUNNY   70  44  39 N14       30.09F
6HR MIN TEMP:  59; 6HR MAX TEMP:  70; 6HR PCP: TRACE;              C1F1C2F2C3F3C4F4C5F5C6F6C7F7C8F8C9F9CaFaCbFbCcFcCdFdCe!



USA.gov is the U.S. government's official web portal to all federal, state and local government web resources and services.